User: anonymous   Login
Location: Taupo
(38.6830°S, 176.0830°E)
Time: 17:39:27
(UTC+13:00)
Language:

BREEZE-M DEB (TANK) - Orbit

View from above orbital plane
View from above orbital plane
View from above satellite
View from above satellite

Ground track
Ground track

The orbit data is extracted from the following two-line orbital elements,

1 34712U 09016C   19294.61810420 +.00000595 +00000-0 +10863-3 0  9990
2 34712 046.0959 312.2714 5057660 155.2405 241.3849 05.52772728207334
Epoch (UTC): 21 October 2019 14:50:04
Eccentricity: 0.5057660
inclination: 46.0959°
perigee height: 300 km
apogee height: 13967 km
right ascension of ascending node: 312.2714°
argument of perigee: 155.2405°
revolutions per day: 5.52772728
mean anomaly at epoch: 241.3849°
orbit number at epoch: 20733

The dashed part of the orbit path shows where the satellite is in the earth's shadow,  

DLR